Date_Time,Julian_Date,Latitude,Longitude,Instrument_Depth,U,V,Speed,Direction
(yyyy-mm-dd hh:mn:ss UTC),(JD),(+ deg. North),(+ deg. East),(m),(cm/s),(cm/s),(cm/s),(deg True)
1982-04-28 19:00:00 UTC,2445088.291667,28.7317,-95.2428,0201,-15.76,-6.37,17.0000,248.0000
1982-04-28 19:30:00 UTC,2445088.312500,28.7317,-95.2428,0201,-19.41,-4.84,20.0000,256.0000
1982-04-28 20:00:00 UTC,2445088.333333,28.7317,-95.2428,0201,-19.49,-4.50,20.0000,257.0000
1982-04-28 20:30:00 UTC,2445088.354167,28.7317,-95.2428,0201,-16.42,-4.40,17.0000,255.0000
1982-04-28 21:00:00 UTC,2445088.375000,28.7317,-95.2428,0201,-13.31,-4.33,14.0000,252.0000
1982-04-28 21:30:00 UTC,2445088.395833,28.7317,-95.2428,0201,-13.07,-5.02,14.0000,249.0000
1982-04-28 22:00:00 UTC,2445088.416667,28.7317,-95.2428,0201,-14.94,-5.73,16.0000,249.0000
1982-04-28 22:30:00 UTC,2445088.437500,28.7317,-95.2428,0201,-13.91,-5.62,15.0000,248.0000
1982-04-28 23:00:00 UTC,2445088.458333,28.7317,-95.2428,0201,-11.37,-6.30,13.0000,241.0000
1982-04-28 23:30:00 UTC,2445088.479167,28.7317,-95.2428,0201,-10.65,-7.46,13.0000,235.0000
1982-04-29 00:00:00 UTC,2445088.500000,28.7317,-95.2428,0201,-10.72,-9.00,14.0000,230.0000
1982-04-29 00:30:00 UTC,2445088.520833,28.7317,-95.2428,0201,-12.23,-11.81,17.0000,226.0000
1982-04-29 01:00:00 UTC,2445088.541667,28.7317,-95.2428,0201,-14.86,-13.38,20.0000,228.0000
1982-04-29 01:30:00 UTC,2445088.562500,28.7317,-95.2428,0201,-16.09,-13.50,21.0000,230.0000
1982-04-29 02:00:00 UTC,2445088.583333,28.7317,-95.2428,0201,-14.63,-13.64,20.0000,227.0000
1982-04-29 02:30:00 UTC,2445088.604167,28.7317,-95.2428,0201,-12.47,-14.34,19.0000,221.0000
1982-04-29 03:00:00 UTC,2445088.625000,28.7317,-95.2428,0201,-11.43,-15.17,19.0000,217.0000
1982-04-29 03:30:00 UTC,2445088.645833,28.7317,-95.2428,0201,-10.62,-15.75,19.0000,214.0000
1982-04-29 04:00:00 UTC,2445088.666667,28.7317,-95.2428,0201,-9.79,-16.29,19.0000,211.0000
1982-04-29 04:30:00 UTC,2445088.687500,28.7317,-95.2428,0201,-8.92,-16.78,19.0000,208.0000
1982-04-29 05:00:00 UTC,2445088.708333,28.7317,-95.2428,0201,-8.33,-17.08,19.0000,206.0000
1982-04-29 05:30:00 UTC,2445088.729167,28.7317,-95.2428,0201,-8.17,-16.04,18.0000,207.0000
1982-04-29 06:00:00 UTC,2445088.750000,28.7317,-95.2428,0201,-7.27,-13.12,15.0000,209.0000
1982-04-29 06:30:00 UTC,2445088.770833,28.7317,-95.2428,0201,-6.30,-11.37,13.0000,209.0000
1982-04-29 07:00:00 UTC,2445088.791667,28.7317,-95.2428,0201,-6.00,-10.39,12.0000,210.0000
1982-04-29 07:30:00 UTC,2445088.812500,28.7317,-95.2428,0201,-5.16,-9.71,11.0000,208.0000
1982-04-29 08:00:00 UTC,2445088.833333,28.7317,-95.2428,0201,-3.58,-10.40,11.0000,199.0000
1982-04-29 08:30:00 UTC,2445088.854167,28.7317,-95.2428,0201,-0.78,-8.97,9.0000,185.0000
1982-04-29 09:00:00 UTC,2445088.875000,28.7317,-95.2428,0201,2.78,-8.56,9.0000,162.0000
1982-04-29 09:30:00 UTC,2445088.895833,28.7317,-95.2428,0201,5.15,-8.57,10.0000,149.0000
1982-04-29 10:00:00 UTC,2445088.916667,28.7317,-95.2428,0201,6.31,-9.01,11.0000,145.0000
1982-04-29 10:30:00 UTC,2445088.937500,28.7317,-95.2428,0201,7.64,-7.91,11.0000,136.0000
1982-04-29 11:00:00 UTC,2445088.958333,28.7317,-95.2428,0201,8.55,-6.92,11.0000,129.0000
1982-04-29 11:30:00 UTC,2445088.979167,28.7317,-95.2428,0201,9.96,-8.36,13.0000,130.0000
1982-04-29 12:00:00 UTC,2445089.000000,28.7317,-95.2428,0201,10.97,-10.23,15.0000,133.0000
1982-04-29 12:30:00 UTC,2445089.020833,28.7317,-95.2428,0201,11.89,-10.71,16.0000,132.0000
1982-04-29 13:00:00 UTC,2445089.041667,28.7317,-95.2428,0201,11.89,-10.71,16.0000,132.0000
1982-04-29 13:30:00 UTC,2445089.062500,28.7317,-95.2428,0201,11.59,-12.43,17.0000,137.0000
1982-04-29 14:00:00 UTC,2445089.083333,28.7317,-95.2428,0201,8.24,-14.87,17.0000,151.0000
1982-04-29 14:30:00 UTC,2445089.104167,28.7317,-95.2428,0201,1.57,-14.92,15.0000,174.0000
1982-04-29 15:00:00 UTC,2445089.125000,28.7317,-95.2428,0201,-5.02,-13.07,14.0000,201.0000
1982-04-29 15:30:00 UTC,2445089.145833,28.7317,-95.2428,0201,-8.82,-12.14,15.0000,216.0000
1982-04-29 16:00:00 UTC,2445089.166667,28.7317,-95.2428,0201,-11.59,-12.43,17.0000,223.0000
1982-04-29 16:30:00 UTC,2445089.187500,28.7317,-95.2428,0201,-13.40,-10.47,17.0000,232.0000
1982-04-29 17:00:00 UTC,2445089.208333,28.7317,-95.2428,0201,-13.71,-8.24,16.0000,239.0000
1982-04-29 17:30:00 UTC,2445089.229167,28.7317,-95.2428,0201,-12.69,-5.92,14.0000,245.0000
1982-04-29 18:00:00 UTC,2445089.250000,28.7317,-95.2428,0201,-12.22,-4.45,13.0000,250.0000
1982-04-29 18:30:00 UTC,2445089.270833,28.7317,-95.2428,0201,-12.56,-3.36,13.0000,255.0000
1982-04-29 19:00:00 UTC,2445089.291667,28.7317,-95.2428,0201,-12.84,-2.03,13.0000,261.0000
1982-04-29 19:30:00 UTC,2445089.312500,28.7317,-95.2428,0201,-11.97,-0.84,12.0000,266.0000
1982-04-29 20:00:00 UTC,2445089.333333,28.7317,-95.2428,0201,-11.00,-0.19,11.0000,269.0000
1982-04-29 20:30:00 UTC,2445089.354167,28.7317,-95.2428,0201,-12.00,0.21,12.0000,271.0000
1982-04-29 21:00:00 UTC,2445089.375000,28.7317,-95.2428,0201,-10.96,0.96,11.0000,275.0000
1982-04-29 21:30:00 UTC,2445089.395833,28.7317,-95.2428,0201,-9.82,1.91,10.0000,281.0000
1982-04-29 22:00:00 UTC,2445089.416667,28.7317,-95.2428,0201,-8.56,2.78,9.0000,288.0000
1982-04-29 22:30:00 UTC,2445089.437500,28.7317,-95.2428,0201,-8.09,3.95,9.0000,296.0000
1982-04-29 23:00:00 UTC,2445089.458333,28.7317,-95.2428,0201,-7.37,5.16,9.0000,305.0000
1982-04-29 23:30:00 UTC,2445089.479167,28.7317,-95.2428,0201,-6.89,5.79,9.0000,310.0000
1982-04-30 00:00:00 UTC,2445089.500000,28.7317,-95.2428,0201,-6.69,6.02,9.0000,312.0000
1982-04-30 00:30:00 UTC,2445089.520833,28.7317,-95.2428,0201,-7.55,6.56,10.0000,311.0000
1982-04-30 01:00:00 UTC,2445089.541667,28.7317,-95.2428,0201,-7.46,5.03,9.0000,304.0000
1982-04-30 01:30:00 UTC,2445089.562500,28.7317,-95.2428,0201,-7.25,3.38,8.0000,295.0000
1982-04-30 02:00:00 UTC,2445089.583333,28.7317,-95.2428,0201,-6.62,2.28,7.0000,289.0000
1982-04-30 02:30:00 UTC,2445089.604167,28.7317,-95.2428,0201,-5.85,1.35,6.0000,283.0000
1982-04-30 03:00:00 UTC,2445089.625000,28.7317,-95.2428,0201,-6.00,0.10,6.0000,271.0000
1982-04-30 03:30:00 UTC,2445089.645833,28.7317,-95.2428,0201,-6.85,-1.46,7.0000,258.0000
1982-04-30 04:00:00 UTC,2445089.666667,28.7317,-95.2428,0201,-7.56,-2.60,8.0000,251.0000
1982-04-30 04:30:00 UTC,2445089.687500,28.7317,-95.2428,0201,-7.25,-3.38,8.0000,245.0000
1982-04-30 05:00:00 UTC,2445089.708333,28.7317,-95.2428,0201,-5.44,-4.41,7.0000,231.0000
1982-04-30 05:30:00 UTC,2445089.729167,28.7317,-95.2428,0201,-5.25,-6.04,8.0000,221.0000
1982-04-30 06:00:00 UTC,2445089.750000,28.7317,-95.2428,0201,-5.66,-6.99,9.0000,219.0000
1982-04-30 06:30:00 UTC,2445089.770833,28.7317,-95.2428,0201,-5.88,-8.09,10.0000,216.0000
1982-04-30 07:00:00 UTC,2445089.791667,28.7317,-95.2428,0201,-8.53,-9.81,13.0000,221.0000
1982-04-30 07:30:00 UTC,2445089.812500,28.7317,-95.2428,0201,-12.14,-8.82,15.0000,234.0000
1982-04-30 08:00:00 UTC,2445089.833333,28.7317,-95.2428,0201,-15.76,-6.37,17.0000,248.0000
1982-04-30 08:30:00 UTC,2445089.854167,28.7317,-95.2428,0201,-20.38,-5.08,21.0000,256.0000
1982-04-30 09:00:00 UTC,2445089.875000,28.7317,-95.2428,0201,-24.36,-5.62,25.0000,257.0000
1982-04-30 09:30:00 UTC,2445089.895833,28.7317,-95.2428,0201,-23.78,-7.73,25.0000,252.0000
1982-04-30 10:00:00 UTC,2445089.916667,28.7317,-95.2428,0201,-22.25,-8.99,24.0000,248.0000
1982-04-30 10:30:00 UTC,2445089.937500,28.7317,-95.2428,0201,-22.55,-8.21,24.0000,250.0000
1982-04-30 11:00:00 UTC,2445089.958333,28.7317,-95.2428,0201,-23.18,-6.21,24.0000,255.0000
1982-04-30 11:30:00 UTC,2445089.979167,28.7317,-95.2428,0201,-22.58,-4.39,23.0000,259.0000
1982-04-30 12:00:00 UTC,2445090.000000,28.7317,-95.2428,0201,-20.74,-3.29,21.0000,261.0000
1982-04-30 12:30:00 UTC,2445090.020833,28.7317,-95.2428,0201,-17.90,-1.88,18.0000,264.0000
1982-04-30 13:00:00 UTC,2445090.041667,28.7317,-95.2428,0201,-16.00,-0.28,16.0000,269.0000
1982-04-30 13:30:00 UTC,2445090.062500,28.7317,-95.2428,0201,-13.00,0.23,13.0000,271.0000
1982-04-30 14:00:00 UTC,2445090.083333,28.7317,-95.2428,0201,-11.00,-0.19,11.0000,269.0000
1982-04-30 14:30:00 UTC,2445090.104167,28.7317,-95.2428,0201,-9.90,-1.39,10.0000,262.0000
1982-04-30 15:00:00 UTC,2445090.125000,28.7317,-95.2428,0201,-10.52,-3.22,11.0000,253.0000
1982-04-30 15:30:00 UTC,2445090.145833,28.7317,-95.2428,0201,-12.14,-4.66,13.0000,249.0000
1982-04-30 16:00:00 UTC,2445090.166667,28.7317,-95.2428,0201,-13.31,-4.33,14.0000,252.0000
1982-04-30 16:30:00 UTC,2445090.187500,28.7317,-95.2428,0201,-13.69,-2.91,14.0000,258.0000
1982-04-30 17:00:00 UTC,2445090.208333,28.7317,-95.2428,0201,-12.72,-2.70,13.0000,258.0000
1982-04-30 17:30:00 UTC,2445090.229167,28.7317,-95.2428,0201,-9.56,-2.92,10.0000,253.0000
1982-04-30 18:00:00 UTC,2445090.250000,28.7317,-95.2428,0201,-8.28,-3.52,9.0000,247.0000
1982-04-30 18:30:00 UTC,2445090.270833,28.7317,-95.2428,0201,-8.83,-4.69,10.0000,242.0000
1982-04-30 19:00:00 UTC,2445090.291667,28.7317,-95.2428,0201,-10.50,-5.82,12.0000,241.0000
1982-04-30 19:30:00 UTC,2445090.312500,28.7317,-95.2428,0201,-10.96,-4.88,12.0000,246.0000
1982-04-30 20:00:00 UTC,2445090.333333,28.7317,-95.2428,0201,-10.40,-3.58,11.0000,251.0000
1982-04-30 20:30:00 UTC,2445090.354167,28.7317,-95.2428,0201,-9.61,-2.76,10.0000,254.0000
1982-04-30 21:00:00 UTC,2445090.375000,28.7317,-95.2428,0201,-8.80,-1.87,9.0000,258.0000
1982-04-30 21:30:00 UTC,2445090.395833,28.7317,-95.2428,0201,-6.99,-0.37,7.0000,267.0000
1982-04-30 22:00:00 UTC,2445090.416667,28.7317,-95.2428,0201,-2.74,1.22,3.0000,294.0000
1982-04-30 22:30:00 UTC,2445090.437500,28.7317,-95.2428,0201,0.24,1.99,2.0000,7.0000
1982-04-30 23:00:00 UTC,2445090.458333,28.7317,-95.2428,0201,2.70,1.32,3.0000,64.0000
1982-04-30 23:30:00 UTC,2445090.479167,28.7317,-95.2428,0201,3.85,1.10,4.0000,74.0000
1982-05-01 00:00:00 UTC,2445090.500000,28.7317,-95.2428,0201,2.93,-0.62,3.0000,102.0000
1982-05-01 00:30:00 UTC,2445090.520833,28.7317,-95.2428,0201,1.41,-2.65,3.0000,152.0000
1982-05-01 01:00:00 UTC,2445090.541667,28.7317,-95.2428,0201,2.35,-4.41,5.0000,152.0000
1982-05-01 01:30:00 UTC,2445090.562500,28.7317,-95.2428,0201,3.69,-4.73,6.0000,142.0000
1982-05-01 02:00:00 UTC,2445090.583333,28.7317,-95.2428,0201,4.11,-5.66,7.0000,144.0000
1982-05-01 02:30:00 UTC,2445090.604167,28.7317,-95.2428,0201,3.38,-7.25,8.0000,155.0000
1982-05-01 03:00:00 UTC,2445090.625000,28.7317,-95.2428,0201,2.76,-9.61,10.0000,164.0000
1982-05-01 03:30:00 UTC,2445090.645833,28.7317,-95.2428,0201,2.90,-11.64,12.0000,166.0000
1982-05-01 04:00:00 UTC,2445090.666667,28.7317,-95.2428,0201,4.09,-13.39,14.0000,163.0000
1982-05-01 04:30:00 UTC,2445090.687500,28.7317,-95.2428,0201,5.81,-15.97,17.0000,160.0000
1982-05-01 05:00:00 UTC,2445090.708333,28.7317,-95.2428,0201,5.79,-20.19,21.0000,164.0000
1982-05-01 05:30:00 UTC,2445090.729167,28.7317,-95.2428,0201,3.75,-23.70,24.0000,171.0000
1982-05-01 06:00:00 UTC,2445090.750000,28.7317,-95.2428,0201,2.18,-24.90,25.0000,175.0000
1982-05-01 06:30:00 UTC,2445090.770833,28.7317,-95.2428,0201,1.67,-23.94,24.0000,176.0000
1982-05-01 07:00:00 UTC,2445090.791667,28.7317,-95.2428,0201,0.84,-23.99,24.0000,178.0000
1982-05-01 07:30:00 UTC,2445090.812500,28.7317,-95.2428,0201,-1.67,-23.94,24.0000,184.0000
1982-05-01 08:00:00 UTC,2445090.833333,28.7317,-95.2428,0201,-3.20,-22.78,23.0000,188.0000
1982-05-01 08:30:00 UTC,2445090.854167,28.7317,-95.2428,0201,-2.92,-20.80,21.0000,188.0000
1982-05-01 09:00:00 UTC,2445090.875000,28.7317,-95.2428,0201,-1.26,-17.96,18.0000,184.0000
1982-05-01 09:30:00 UTC,2445090.895833,28.7317,-95.2428,0201,0.00,-15.00,15.0000,180.0000
1982-05-01 10:00:00 UTC,2445090.916667,28.7317,-95.2428,0201,2.70,-12.72,13.0000,168.0000
1982-05-01 10:30:00 UTC,2445090.937500,28.7317,-95.2428,0201,6.10,-13.70,15.0000,156.0000
1982-05-01 11:00:00 UTC,2445090.958333,28.7317,-95.2428,0201,8.45,-15.89,18.0000,152.0000
1982-05-01 11:30:00 UTC,2445090.979167,28.7317,-95.2428,0201,8.92,-16.78,19.0000,152.0000
1982-05-01 12:00:00 UTC,2445091.000000,28.7317,-95.2428,0201,8.45,-18.13,20.0000,155.0000
1982-05-01 12:30:00 UTC,2445091.020833,28.7317,-95.2428,0201,7.81,-18.41,20.0000,157.0000
1982-05-01 13:00:00 UTC,2445091.041667,28.7317,-95.2428,0201,6.45,-16.80,18.0000,159.0000
1982-05-01 13:30:00 UTC,2445091.062500,28.7317,-95.2428,0201,5.81,-15.97,17.0000,160.0000
1982-05-01 14:00:00 UTC,2445091.083333,28.7317,-95.2428,0201,5.47,-15.04,16.0000,160.0000
1982-05-01 14:30:00 UTC,2445091.104167,28.7317,-95.2428,0201,5.25,-16.17,17.0000,162.0000
1982-05-01 15:00:00 UTC,2445091.125000,28.7317,-95.2428,0201,4.41,-15.38,16.0000,164.0000
1982-05-01 15:30:00 UTC,2445091.145833,28.7317,-95.2428,0201,4.41,-15.38,16.0000,164.0000
1982-05-01 16:00:00 UTC,2445091.166667,28.7317,-95.2428,0201,3.60,-15.59,16.0000,167.0000
1982-05-01 16:30:00 UTC,2445091.187500,28.7317,-95.2428,0201,0.56,-15.99,16.0000,178.0000
1982-05-01 17:00:00 UTC,2445091.208333,28.7317,-95.2428,0201,-3.53,-16.63,17.0000,192.0000
1982-05-01 17:30:00 UTC,2445091.229167,28.7317,-95.2428,0201,-7.73,-17.36,19.0000,204.0000
1982-05-01 18:00:00 UTC,2445091.250000,28.7317,-95.2428,0201,-12.21,-14.55,19.0000,220.0000
1982-05-01 18:30:00 UTC,2445091.270833,28.7317,-95.2428,0201,-15.75,-10.62,19.0000,236.0000
1982-05-01 19:00:00 UTC,2445091.291667,28.7317,-95.2428,0201,-15.59,-9.00,18.0000,240.0000
1982-05-01 19:30:00 UTC,2445091.312500,28.7317,-95.2428,0201,-12.94,-9.40,16.0000,234.0000
1982-05-01 20:00:00 UTC,2445091.333333,28.7317,-95.2428,0201,-12.63,-11.38,17.0000,228.0000
1982-05-01 20:30:00 UTC,2445091.354167,28.7317,-95.2428,0201,-13.67,-13.20,19.0000,226.0000
1982-05-01 21:00:00 UTC,2445091.375000,28.7317,-95.2428,0201,-15.32,-12.86,20.0000,230.0000
1982-05-01 21:30:00 UTC,2445091.395833,28.7317,-95.2428,0201,-17.80,-12.93,22.0000,234.0000
1982-05-01 22:00:00 UTC,2445091.416667,28.7317,-95.2428,0201,-19.90,-13.42,24.0000,236.0000
1982-05-01 22:30:00 UTC,2445091.437500,28.7317,-95.2428,0201,-20.35,-12.72,24.0000,238.0000
1982-05-01 23:00:00 UTC,2445091.458333,28.7317,-95.2428,0201,-19.05,-11.00,22.0000,240.0000
1982-05-01 23:30:00 UTC,2445091.479167,28.7317,-95.2428,0201,-17.49,-9.70,20.0000,241.0000
1982-05-02 00:00:00 UTC,2445091.500000,28.7317,-95.2428,0201,-16.45,-9.50,19.0000,240.0000
1982-05-02 00:30:00 UTC,2445091.520833,28.7317,-95.2428,0201,-15.75,-10.62,19.0000,236.0000
1982-05-02 01:00:00 UTC,2445091.541667,28.7317,-95.2428,0201,-15.93,-10.35,19.0000,237.0000
1982-05-02 01:30:00 UTC,2445091.562500,28.7317,-95.2428,0201,-15.10,-9.80,18.0000,237.0000
1982-05-02 02:00:00 UTC,2445091.583333,28.7317,-95.2428,0201,-13.75,-9.99,17.0000,234.0000
1982-05-02 02:30:00 UTC,2445091.604167,28.7317,-95.2428,0201,-13.75,-9.99,17.0000,234.0000
1982-05-02 03:00:00 UTC,2445091.625000,28.7317,-95.2428,0201,-14.74,-10.32,18.0000,235.0000
1982-05-02 03:30:00 UTC,2445091.645833,28.7317,-95.2428,0201,-13.75,-9.99,17.0000,234.0000
1982-05-02 04:00:00 UTC,2445091.666667,28.7317,-95.2428,0201,-13.99,-11.33,18.0000,231.0000
1982-05-02 04:30:00 UTC,2445091.687500,28.7317,-95.2428,0201,-15.09,-13.12,20.0000,229.0000
1982-05-02 05:00:00 UTC,2445091.708333,28.7317,-95.2428,0201,-16.35,-14.72,22.0000,228.0000
1982-05-02 05:30:00 UTC,2445091.729167,28.7317,-95.2428,0201,-14.59,-15.11,21.0000,224.0000
1982-05-02 06:00:00 UTC,2445091.750000,28.7317,-95.2428,0201,-13.50,-16.09,21.0000,220.0000
1982-05-02 06:30:00 UTC,2445091.770833,28.7317,-95.2428,0201,-12.04,-15.97,20.0000,217.0000
1982-05-02 07:00:00 UTC,2445091.791667,28.7317,-95.2428,0201,-11.74,-17.41,21.0000,214.0000
1982-05-02 07:30:00 UTC,2445091.812500,28.7317,-95.2428,0201,-13.07,-20.13,24.0000,213.0000
1982-05-02 08:00:00 UTC,2445091.833333,28.7317,-95.2428,0201,-15.49,-22.12,27.0000,215.0000
1982-05-02 08:30:00 UTC,2445091.854167,28.7317,-95.2428,0201,-16.25,-21.56,27.0000,217.0000
1982-05-02 09:00:00 UTC,2445091.875000,28.7317,-95.2428,0201,-16.99,-20.98,27.0000,219.0000
1982-05-02 09:30:00 UTC,2445091.895833,28.7317,-95.2428,0201,-16.07,-19.15,25.0000,220.0000
1982-05-02 10:00:00 UTC,2445091.916667,28.7317,-95.2428,0201,-15.39,-17.09,23.0000,222.0000
1982-05-02 10:30:00 UTC,2445091.937500,28.7317,-95.2428,0201,-14.85,-14.85,21.0000,225.0000
1982-05-02 11:00:00 UTC,2445091.958333,28.7317,-95.2428,0201,-14.14,-14.14,20.0000,225.0000
1982-05-02 11:30:00 UTC,2445091.979167,28.7317,-95.2428,0201,-13.64,-14.63,20.0000,223.0000
1982-05-02 12:00:00 UTC,2445092.000000,28.7317,-95.2428,0201,-12.71,-14.12,19.0000,222.0000
1982-05-02 12:30:00 UTC,2445092.020833,28.7317,-95.2428,0201,-10.93,-13.02,17.0000,220.0000
1982-05-02 13:00:00 UTC,2445092.041667,28.7317,-95.2428,0201,-9.03,-11.98,15.0000,217.0000
1982-05-02 13:30:00 UTC,2445092.062500,28.7317,-95.2428,0201,-7.27,-10.78,13.0000,214.0000
1982-05-02 14:00:00 UTC,2445092.083333,28.7317,-95.2428,0201,-6.54,-10.06,12.0000,213.0000
1982-05-02 14:30:00 UTC,2445092.104167,28.7317,-95.2428,0201,-5.83,-9.33,11.0000,212.0000
1982-05-02 15:00:00 UTC,2445092.125000,28.7317,-95.2428,0201,-5.45,-10.69,12.0000,207.0000
1982-05-02 15:30:00 UTC,2445092.145833,28.7317,-95.2428,0201,-5.07,-10.88,12.0000,205.0000
1982-05-02 16:00:00 UTC,2445092.166667,28.7317,-95.2428,0201,-4.30,-10.13,11.0000,203.0000
1982-05-02 16:30:00 UTC,2445092.187500,28.7317,-95.2428,0201,-3.22,-10.52,11.0000,197.0000
1982-05-02 17:00:00 UTC,2445092.208333,28.7317,-95.2428,0201,-1.13,-12.95,13.0000,185.0000
1982-05-02 17:30:00 UTC,2445092.229167,28.7317,-95.2428,0201,1.57,-14.92,15.0000,174.0000
1982-05-02 18:00:00 UTC,2445092.250000,28.7317,-95.2428,0201,0.30,-17.00,17.0000,179.0000
1982-05-02 18:30:00 UTC,2445092.270833,28.7317,-95.2428,0201,-4.84,-19.41,20.0000,194.0000
1982-05-02 19:00:00 UTC,2445092.291667,28.7317,-95.2428,0201,-8.99,-21.17,23.0000,203.0000
1982-05-02 19:30:00 UTC,2445092.312500,28.7317,-95.2428,0201,-10.52,-21.57,24.0000,206.0000
1982-05-02 20:00:00 UTC,2445092.333333,28.7317,-95.2428,0201,-11.50,-19.92,23.0000,210.0000
1982-05-02 20:30:00 UTC,2445092.354167,28.7317,-95.2428,0201,-13.54,-17.34,22.0000,218.0000
1982-05-02 21:00:00 UTC,2445092.375000,28.7317,-95.2428,0201,-14.32,-15.36,21.0000,223.0000
1982-05-02 21:30:00 UTC,2445092.395833,28.7317,-95.2428,0201,-12.96,-13.90,19.0000,223.0000
1982-05-02 22:00:00 UTC,2445092.416667,28.7317,-95.2428,0201,-12.04,-13.38,18.0000,222.0000
1982-05-02 22:30:00 UTC,2445092.437500,28.7317,-95.2428,0201,-10.50,-12.08,16.0000,221.0000
1982-05-02 23:00:00 UTC,2445092.458333,28.7317,-95.2428,0201,-8.62,-11.03,14.0000,218.0000
1982-05-02 23:30:00 UTC,2445092.479167,28.7317,-95.2428,0201,-7.39,-9.46,12.0000,218.0000
1982-05-03 00:00:00 UTC,2445092.500000,28.7317,-95.2428,0201,-6.92,-8.55,11.0000,219.0000
1982-05-03 00:30:00 UTC,2445092.520833,28.7317,-95.2428,0201,-5.59,-8.29,10.0000,214.0000
1982-05-03 01:00:00 UTC,2445092.541667,28.7317,-95.2428,0201,-5.74,-8.19,10.0000,215.0000
1982-05-03 01:30:00 UTC,2445092.562500,28.7317,-95.2428,0201,-6.82,-7.31,10.0000,223.0000
1982-05-03 02:00:00 UTC,2445092.583333,28.7317,-95.2428,0201,-6.22,-5.03,8.0000,231.0000
1982-05-03 02:30:00 UTC,2445092.604167,28.7317,-95.2428,0201,-5.94,-3.71,7.0000,238.0000
1982-05-03 03:00:00 UTC,2445092.625000,28.7317,-95.2428,0201,-4.79,-3.61,6.0000,233.0000
1982-05-03 03:30:00 UTC,2445092.645833,28.7317,-95.2428,0201,-3.47,-3.60,5.0000,224.0000
1982-05-03 04:00:00 UTC,2445092.666667,28.7317,-95.2428,0201,-3.54,-3.54,5.0000,225.0000
1982-05-03 04:30:00 UTC,2445092.687500,28.7317,-95.2428,0201,-3.89,-3.15,5.0000,231.0000
1982-05-03 05:00:00 UTC,2445092.708333,28.7317,-95.2428,0201,-5.20,-3.00,6.0000,240.0000
1982-05-03 05:30:00 UTC,2445092.729167,28.7317,-95.2428,0201,-5.60,-2.15,6.0000,249.0000
1982-05-03 06:00:00 UTC,2445092.750000,28.7317,-95.2428,0201,-6.73,-1.93,7.0000,254.0000
1982-05-03 06:30:00 UTC,2445092.770833,28.7317,-95.2428,0201,-7.73,-2.07,8.0000,255.0000
1982-05-03 07:00:00 UTC,2445092.791667,28.7317,-95.2428,0201,-8.80,-1.87,9.0000,258.0000
1982-05-03 07:30:00 UTC,2445092.812500,28.7317,-95.2428,0201,-8.93,-1.10,9.0000,263.0000
1982-05-03 08:00:00 UTC,2445092.833333,28.7317,-95.2428,0201,-6.99,-0.37,7.0000,267.0000
1982-05-03 08:30:00 UTC,2445092.854167,28.7317,-95.2428,0201,-6.00,-0.00,6.0000,270.0000
1982-05-03 09:00:00 UTC,2445092.875000,28.7317,-95.2428,0201,-4.99,0.26,5.0000,273.0000
1982-05-03 09:30:00 UTC,2445092.895833,28.7317,-95.2428,0201,-4.99,0.26,5.0000,273.0000
1982-05-03 10:00:00 UTC,2445092.916667,28.7317,-95.2428,0201,-5.00,-0.09,5.0000,269.0000
1982-05-03 10:30:00 UTC,2445092.937500,28.7317,-95.2428,0201,-4.00,0.14,4.0000,272.0000
1982-05-03 11:00:00 UTC,2445092.958333,28.7317,-95.2428,0201,-3.78,1.30,4.0000,289.0000
1982-05-03 11:30:00 UTC,2445092.979167,28.7317,-95.2428,0201,-2.05,2.19,3.0000,317.0000
1982-05-03 12:00:00 UTC,2445093.000000,28.7317,-95.2428,0201,-1.82,3.56,4.0000,333.0000
1982-05-03 12:30:00 UTC,2445093.020833,28.7317,-95.2428,0201,-1.63,4.73,5.0000,341.0000
1982-05-03 13:00:00 UTC,2445093.041667,28.7317,-95.2428,0201,-1.04,5.91,6.0000,350.0000
1982-05-03 13:30:00 UTC,2445093.062500,28.7317,-95.2428,0201,-0.10,6.00,6.0000,359.0000
1982-05-03 14:00:00 UTC,2445093.083333,28.7317,-95.2428,0201,1.10,6.91,7.0000,9.0000
1982-05-03 14:30:00 UTC,2445093.104167,28.7317,-95.2428,0201,2.05,6.69,7.0000,17.0000
1982-05-03 15:00:00 UTC,2445093.125000,28.7317,-95.2428,0201,2.74,7.52,8.0000,20.0000
1982-05-03 15:30:00 UTC,2445093.145833,28.7317,-95.2428,0201,3.00,7.42,8.0000,22.0000
1982-05-03 16:00:00 UTC,2445093.166667,28.7317,-95.2428,0201,3.51,7.19,8.0000,26.0000
1982-05-03 16:30:00 UTC,2445093.187500,28.7317,-95.2428,0201,4.36,7.87,9.0000,29.0000
1982-05-03 17:00:00 UTC,2445093.208333,28.7317,-95.2428,0201,5.03,7.46,9.0000,34.0000
1982-05-03 17:30:00 UTC,2445093.229167,28.7317,-95.2428,0201,5.75,5.56,8.0000,46.0000
1982-05-03 18:00:00 UTC,2445093.250000,28.7317,-95.2428,0201,6.18,3.29,7.0000,62.0000
1982-05-03 18:30:00 UTC,2445093.270833,28.7317,-95.2428,0201,5.82,1.45,6.0000,76.0000
1982-05-03 19:00:00 UTC,2445093.291667,28.7317,-95.2428,0201,5.97,0.63,6.0000,84.0000
1982-05-03 19:30:00 UTC,2445093.312500,28.7317,-95.2428,0201,5.99,-0.31,6.0000,93.0000
1982-05-03 20:00:00 UTC,2445093.333333,28.7317,-95.2428,0201,6.79,-1.69,7.0000,104.0000
1982-05-03 20:30:00 UTC,2445093.354167,28.7317,-95.2428,0201,6.49,-2.62,7.0000,112.0000
1982-05-03 21:00:00 UTC,2445093.375000,28.7317,-95.2428,0201,5.35,-2.72,6.0000,117.0000
1982-05-03 21:30:00 UTC,2445093.395833,28.7317,-95.2428,0201,5.20,-3.00,6.0000,120.0000
1982-05-03 22:00:00 UTC,2445093.416667,28.7317,-95.2428,0201,5.94,-3.71,7.0000,122.0000
1982-05-03 22:30:00 UTC,2445093.437500,28.7317,-95.2428,0201,5.09,-3.18,6.0000,122.0000
1982-05-03 23:00:00 UTC,2445093.458333,28.7317,-95.2428,0201,4.10,-2.87,5.0000,125.0000
1982-05-03 23:30:00 UTC,2445093.479167,28.7317,-95.2428,0201,3.19,-2.41,4.0000,127.0000
1982-05-04 00:00:00 UTC,2445093.500000,28.7317,-95.2428,0201,3.46,-2.00,4.0000,120.0000
1982-05-04 00:30:00 UTC,2445093.520833,28.7317,-95.2428,0201,4.70,-1.71,5.0000,110.0000
1982-05-04 01:00:00 UTC,2445093.541667,28.7317,-95.2428,0201,5.80,-1.55,6.0000,105.0000
1982-05-04 01:30:00 UTC,2445093.562500,28.7317,-95.2428,0201,5.91,-1.04,6.0000,100.0000
1982-05-04 02:00:00 UTC,2445093.583333,28.7317,-95.2428,0201,5.98,-0.52,6.0000,95.0000
1982-05-04 02:30:00 UTC,2445093.604167,28.7317,-95.2428,0201,7.00,0.12,7.0000,89.0000
1982-05-04 03:00:00 UTC,2445093.625000,28.7317,-95.2428,0201,6.96,0.73,7.0000,84.0000
1982-05-04 03:30:00 UTC,2445093.645833,28.7317,-95.2428,0201,7.97,0.70,8.0000,85.0000
1982-05-04 04:00:00 UTC,2445093.666667,28.7317,-95.2428,0201,9.99,0.35,10.0000,88.0000
1982-05-04 04:30:00 UTC,2445093.687500,28.7317,-95.2428,0201,10.00,0.17,10.0000,89.0000
1982-05-04 05:00:00 UTC,2445093.708333,28.7317,-95.2428,0201,8.99,0.31,9.0000,88.0000
1982-05-04 05:30:00 UTC,2445093.729167,28.7317,-95.2428,0201,7.99,0.42,8.0000,87.0000
1982-05-04 06:00:00 UTC,2445093.750000,28.7317,-95.2428,0201,6.99,-0.37,7.0000,93.0000
1982-05-04 06:30:00 UTC,2445093.770833,28.7317,-95.2428,0201,5.82,-1.45,6.0000,104.0000
1982-05-04 07:00:00 UTC,2445093.791667,28.7317,-95.2428,0201,5.96,-0.73,6.0000,97.0000